Regional Weather Roundup
Issued by NWS

Home | Current Version | Previous Version | Text Only | Print | Product List | Glossary Off
Versions: 1 2 3 4 5 6 7 8 9 10 11 12 13 14 15 16 17 18 19 20 21 22 23 24 25 26 27 28 29 30 31 32 33 34 35 36 37 38 39 40 41 42 43 44 45 46 47 48 49 50

000
ASUS43 KOAX 272202
RWRNE

WEATHER ROUNDUP FOR NEBRASKA
NATIONAL WEATHER SERVICE OMAHA NE
500 PM CDT THU AUG 27 2015

NOTES: SATELLITE DATA IS BEING USED TO AUGMENT CLOUD COVER ABOVE
       12000 FEET.
       "FAIR" INDICATES FEW OR NO CLOUDS BELOW 12,000 FEET WITH NO
       SIGNIFICANT WEATHER AND/OR OBSTRUCTIONS TO VISIBILITY.

  * THESE STATIONS DO NOT REPORT WEATHER SUCH AS RAIN...SNOW OR FOG.

NEZ001>004-019>022-054>056-272300-
NEBRASKA PANHANDLE

CITY           SKY/WX    TMP DP  RH WIND       PRES   REMARKS
SCOTTSBLUFF    FAIR      83  55  38 N13       30.04S
ALLIANCE       FAIR      77  56  48 N18G26    30.03R
CHADRON        CLOUDY    78  55  44 NE10      30.02F
KIMBALL        FAIR      77  55  45 N22G29    30.08R
SIDNEY         FAIR      87  58  37 N23G30    30.02S
$$

NEZ057>060-069>072-079>082-272300-
SOUTHWEST NEBRASKA

CITY           SKY/WX    TMP DP  RH WIND       PRES   REMARKS
NORTH PLATTE   FAIR      88  63  43 VRB5      29.85F
IMPERIAL       FAIR      92  56  29 N10       29.89F HX  90
MCCOOK         FAIR      95  56  26 W10       29.83F HX  93
$$

NEZ005>010-023>029-035>040-094-272300-
NORTH CENTRAL NEBRASKA

CITY           SKY/WX    TMP DP  RH WIND       PRES   REMARKS
AINSWORTH      PTSUNNY   77  68  74 NE12      29.92R
BROKEN BOW     FAIR      83  70  64 SE7       29.87F
O`NEILL        DRIZZLE   78  72  81 E7        29.89F
ORD            FAIR      82  69  64 SE8       29.85F
$$

NEZ041-046>049-061>064-073>077-083>087-272300-
SOUTH CENTRAL NEBRASKA

CITY           SKY/WX    TMP DP  RH WIND       PRES   REMARKS
GRAND ISLAND   PTSUNNY   80  70  71 SE13G22   29.86F
AURORA         DRIZZLE   81  69  66 S13G18    29.88F
HASTINGS       FAIR      87  70  56 SE17G25   29.84F HX  92
KEARNEY *      FAIR      88  72  58 SE18G28   29.82F HX  94
YORK           FAIR      82  68  61 S20       29.89S
$$

NEZ011>018-030>034-042>045-272300-
NORTHEAST NEBRASKA

CITY           SKY/WX    TMP DP  RH WIND       PRES   REMARKS
NORFOLK        PTSUNNY   80  69  69 SE18G26   29.90R
ALBION         FAIR      80  68  67 SE9       29.88F
BLAIR          FAIR      78  65  63 S16G24    29.94S
COLUMBUS *     PTSUNNY  N/A N/A N/A S10G20    29.89F
FREMONT        FAIR      80  67  65 SE20G25   29.92F
TEKAMAH        FAIR      80  69  69 S10       29.93S
$$

NEZ050>053-065>068-078-088>093-272300-
SOUTHEAST NEBRASKA

CITY           SKY/WX    TMP DP  RH WIND       PRES   REMARKS
LINCOLN        FAIR      83  66  56 S22G33    29.91S
OMAHA EPPLEY   CLOUDY    83  66  56 S20       29.93S
BEATRICE       FAIR      82  66  59 S17       29.91F
FALLS CITY     FAIR      80  66  62 S13       29.95F
NEBRASKA CITY  FAIR      79  61  53 S21G26    29.94F
PLATTSMOUTH    FAIR      78  65  64 S15G21    29.93F
$$

NEZ044-045-051>053-067-272300-
OMAHA AREA

CITY           SKY/WX    TMP DP  RH WIND       PRES   REMARKS
OMAHA EPPLEY   CLOUDY    83  66  56 S20       29.93S
BLAIR          FAIR      78  65  63 S16G24    29.94S
FREMONT        FAIR      80  67  65 SE20G25   29.92F
OFFUTT AFB     FAIR      81  67  61 S16G22    29.92F
PLATTSMOUTH    FAIR      78  65  64 S15G21    29.93F
WAHOO          FAIR      79  68  70 SE18G25   29.92F
$$




USA.gov is the U.S. government's official web portal to all federal, state and local government web resources and services.